STARLINK-34707, 65176

Orbit data source: Space-Track

STARLINK-34707, 65176 is a payload satellite owned by SpaceX/Seattle (US) in SSO that was launched on Thu, 14 Aug 2025 UTC via an FALCON 9 launch vehicle from the Air Force Western Test Range (AFWTR). Payload-class satellites include a variety of spacecraft equipped with specific instruments for various scientific and technological missions. These include communications satellites like Starlink; space stations such as the ISS; scientific satellites like the Hubble; Earth observation satellites from companies like Planet Labs, Umbra, and HawkEye 360; GPS; miniature CubeSats for education and research; and military/defense satellites.

Loading next visibility...
Identifier
65176, 2025-175C
Orbit
SSO
Country
Flag of USUS
Related business
Manufacturer
SpaceX/Seattle
Mission
Operational Commercial Communications
Bus & Motor
STARLINK V2MO, Unknown motor
Mass
575 kg wet, ~530 kg dry
Launch date (UTC)
2025-08-14 (10 months ago)
Launch vehicle
FALCON 9
Launch site
Air Force Western Test Range (AFWTR)
Object type
Payload
Rocket body
Debris
Shape & HBR
Box + 2 Pan, 17.7 m
Radar Cross Section
36.964 m², Large (>1 m²)

Expand to show TLE details & history
Last TLE update: 15 hours ago

TLE from 15 hours ago
0 STARLINK-34707
1 65176U 25175C   26171.21686535  .00009300  00000-0  64763-3 0  9999
2 65176  97.3401  42.5572 0002336  87.7606 272.3889 15.05650061 48060
Epoch: 2026-06-20T05:12Z
TLE epoch observation values (Epoch: 2026-06-20T05:12:17.166Z)
Latitude
-0.00001°
Longitude
56.05101°
Altitude
552.517 km
Speed
7.586 km/s
True Right ascension
02h 50m 13s
True Declination
0° 00' 00"
Sunlit
Object was in daylight at epoch
Visualization orbit readout
Latitude
Unknown
Longitude
Unknown
Altitude
Unknown
Speed
Unknown
Apparent Right ascension
Unknown
Apparent Declination
Unknown
Sunlit
N/A
Visualization observer readout
Local Sidereal Time
07:14:27
Azimuth
Unknown
Elevation
Unknown
Doppler factor
Unknown
Orbital elements
Apogee altitude
548.111 km
Perigee altitude
544.876 km
Semi-major axis
6,924.63 km
Eccentricity
0.00023
Inclination
97.3401°
RAAN
42.5572°
Arg. of periapsis
87.7606°
True anomaly
272.36215°
Mean anomaly
272.3889°
Eccentric anomaly
272.37553°
Mean motion
3.76659 °/min
Orbital period
95.58 mins
BSTAR
0.00064763
Loading maneuver chart data...
Computing Atmospheric mass density...
Loading historical data...
Loading historical data...
Loading historical data...
Loading historical data...
Loading historical data...
Loading historical data...
Loading historical data...

Documentation

Showing up to 5 results
|